• In Moldova, Republic
  • List of Countries
  • For 7 days
  • Water Temperature
  • Satellite Maps
  • Weather Map
  • Weather Widgets
  • user-avatar
    Login

    Hourly Weather Newcastle

    Today, 24 June, Saturday

    Time Temperature Precipitation Wind Pressure Humidity
    00:00 +10°C° 0 mm 5 mps 760 mmHg 72%
    01:00 +10°C° 0 mm 5 mps 760 mmHg 71%
    02:00 +10°C° 0 mm 5 mps 760 mmHg 70%
    03:00 +10°C° 0 mm 5 mps 760 mmHg 69%
    04:00 +9°C° 0 mm 5 mps 760 mmHg 68%
    05:00 +9°C° 0 mm 5 mps 761 mmHg 68%
    06:00 +9°C° 0 mm 5 mps 761 mmHg 68%
    07:00 +9°C° 0 mm 5 mps 761 mmHg 68%
    08:00 +10°C° 0 mm 5 mps 762 mmHg 63%
    09:00 +13°C° 0 mm 5 mps 762 mmHg 58%
    10:00 +14°C° 0 mm 5 mps 762 mmHg 53%
    11:00 +15°C° 0 mm 4 mps 762 mmHg 50%
    12:00 +18°C° 0 mm 4 mps 761 mmHg 46%
    13:00 +19°C° 0 mm 4 mps 761 mmHg 42%
    14:00 +18°C° 0 mm 3 mps 761 mmHg 50%
    15:00 +17°C° 0 mm 2 mps 761 mmHg 57%
    16:00 +17°C° 0 mm 2 mps 761 mmHg 65%
    17:00 +14°C° 0 mm 2 mps 761 mmHg 70%
    18:00 +12°C° 0 mm 1 mps 762 mmHg 76%
    19:00 +10°C° 0 mm 1 mps 762 mmHg 81%
    20:00 +10°C° 0 mm 1 mps 762 mmHg 78%
    21:00 +9°C° 0 mm 2 mps 763 mmHg 76%
    22:00 +10°C° 0 mm 2 mps 763 mmHg 73%
    23:00 +9°C° 0 mm 3 mps 763 mmHg 75%

    Tomorrow, 25 June, Sunday

    Time Temperature Precipitation Wind Pressure Humidity
    00:00 +9°C° 0 mm 3 mps 763 mmHg 76%
    01:00 +8°C° 0 mm 3 mps 763 mmHg 78%
    02:00 +8°C° 0 mm 3 mps 763 mmHg 80%
    03:00 +8°C° 0 mm 3 mps 763 mmHg 83%
    04:00 +7°C° 0 mm 3 mps 762 mmHg 85%
    05:00 +7°C° 0 mm 3 mps 763 mmHg 85%
    06:00 +7°C° 0 mm 3 mps 763 mmHg 85%
    07:00 +7°C° 0 mm 2 mps 763 mmHg 85%
    08:00 +9°C° 0 mm 3 mps 763 mmHg 77%
    09:00 +12°C° 0 mm 3 mps 763 mmHg 68%
    10:00 +14°C° 0 mm 3 mps 763 mmHg 60%
    11:00 +17°C° 0 mm 3 mps 763 mmHg 55%
    12:00 +18°C° 0 mm 3 mps 762 mmHg 50%
    13:00 +19°C° 0 mm 4 mps 762 mmHg 45%
    14:00 +19°C° 0 mm 3 mps 762 mmHg 49%
    15:00 +18°C° 0 mm 3 mps 762 mmHg 53%
    16:00 +18°C° 0 mm 3 mps 761 mmHg 57%
    17:00 +16°C° 0 mm 3 mps 762 mmHg 61%
    18:00 +13°C° 0 mm 4 mps 763 mmHg 65%
    19:00 +12°C° 0 mm 4 mps 763 mmHg 70%
    20:00 +11°C° 0 mm 4 mps 764 mmHg 71%
    21:00 +11°C° 0 mm 4 mps 764 mmHg 73%
    22:00 +10°C° 0 mm 4 mps 764 mmHg 74%
    23:00 +10°C° 0 mm 4 mps 764 mmHg 76%

    Day after tomorrow, 26 June, Monday

    Time Temperature Precipitation Wind Pressure Humidity
    00:00 +8°C° 0 mm 4 mps 764 mmHg 78%
    01:00 +8°C° 0 mm 5 mps 764 mmHg 80%
    02:00 +8°C° 0 mm 5 mps 764 mmHg 81%
    03:00 +7°C° 0 mm 5 mps 764 mmHg 81%
    04:00 +7°C° 0 mm 5 mps 764 mmHg 82%
    05:00 +7°C° 0 mm 4 mps 765 mmHg 83%
    06:00 +7°C° 0 mm 4 mps 765 mmHg 84%
    07:00 +6°C° 0 mm 4 mps 766 mmHg 85%
    08:00 +8°C° 0 mm 4 mps 766 mmHg 76%
    09:00 +11°C° 0 mm 3 mps 767 mmHg 66%
    10:00 +13°C° 0 mm 3 mps 767 mmHg 57%
    11:00 +14°C° 0 mm 3 mps 767 mmHg 52%
    12:00 +16°C° 0 mm 3 mps 766 mmHg 48%
    13:00 +17°C° 0 mm 2 mps 766 mmHg 43%
    14:00 +17°C° 0 mm 2 mps 766 mmHg 49%
    15:00 +16°C° 0 mm 2 mps 766 mmHg 56%
    16:00 +15°C° 0 mm 2 mps 766 mmHg 62%
    17:00 +13°C° 0 mm 2 mps 767 mmHg 71%
    18:00 +9°C° 0 mm 2 mps 768 mmHg 81%
    19:00 +7°C° 0 mm 2 mps 768 mmHg 90%
    20:00 +7°C° 0 mm 1 mps 768 mmHg 92%
    21:00 +7°C° 0 mm 1 mps 769 mmHg 93%
    22:00 +6°C° 0 mm 1 mps 769 mmHg 95%
    23:00 +7°C° 0 mm 1 mps 769 mmHg 91%

    27 June, Tuesday

    Time Temperature Precipitation Wind Pressure Humidity
    00:00 +8°C° 0 mm 1 mps 769 mmHg 86%
    01:00 +8°C° 0 mm 2 mps 769 mmHg 82%
    02:00 +7°C° 0 mm 2 mps 769 mmHg 83%
    03:00 +7°C° 0 mm 2 mps 769 mmHg 84%
    04:00 +7°C° 0 mm 2 mps 769 mmHg 86%
    05:00 +6°C° 0 mm 2 mps 769 mmHg 87%
    06:00 +6°C° 0 mm 2 mps 769 mmHg 89%
    07:00 +7°C° 0 mm 1 mps 769 mmHg 91%
    08:00 +10°C° 0 mm 1 mps 770 mmHg 81%
    09:00 +13°C° 0 mm 1 mps 770 mmHg 71%
    10:00 +16°C° 0 mm 1 mps 770 mmHg 61%
    11:00 +18°C° 0 mm 1 mps 769 mmHg 59%
    12:00 +19°C° 0 mm 1 mps 768 mmHg 56%
    13:00 +19°C° 0 mm 1 mps 768 mmHg 54%
    14:00 +19°C° 0 mm 1 mps 767 mmHg 59%
    15:00 +18°C° 0 mm 1 mps 767 mmHg 64%
    16:00 +18°C° 0 mm 1 mps 767 mmHg 68%
    17:00 +15°C° 0 mm 1 mps 767 mmHg 75%
    18:00 +14°C° 0 mm 2 mps 768 mmHg 82%
    19:00 +13°C° 0 mm 2 mps 768 mmHg 89%
    20:00 +12°C° 0 mm 2 mps 768 mmHg 91%
    21:00 +12°C° 0 mm 2 mps 768 mmHg 93%
    22:00 +10°C° 0 mm 2 mps 768 mmHg 96%
    23:00 +10°C° 0 mm 2 mps 768 mmHg 96%

    28 June, Wednesday

    Time Temperature Precipitation Wind Pressure Humidity
    00:00 +9°C° 0 mm 2 mps 768 mmHg 97%
    01:00 +9°C° 0 mm 2 mps 768 mmHg 97%
    02:00 +9°C° 0 mm 2 mps 768 mmHg 97%
    03:00 +8°C° 0 mm 2 mps 768 mmHg 97%
    04:00 +8°C° 0 mm 2 mps 767 mmHg 97%
    05:00 +9°C° 0 mm 2 mps 768 mmHg 95%
    06:00 +9°C° 0 mm 2 mps 768 mmHg 93%
    07:00 +9°C° 0 mm 2 mps 768 mmHg 91%
    08:00 +12°C° 0 mm 2 mps 769 mmHg 84%
    09:00 +14°C° 0 mm 2 mps 769 mmHg 77%
    10:00 +15°C° 0 mm 2 mps 769 mmHg 70%
    11:00 +17°C° 0 mm 2 mps 768 mmHg 64%
    12:00 +20°C° 0 mm 1 mps 767 mmHg 58%
    13:00 +21°C° 0 mm 1 mps 767 mmHg 52%
    14:00 +21°C° 0 mm 1 mps 767 mmHg 56%
    15:00 +20°C° 0 mm 1 mps 766 mmHg 61%
    16:00 +19°C° 0 mm 1 mps 766 mmHg 66%
    17:00 +17°C° 0 mm 2 mps 767 mmHg 74%
    18:00 +15°C° 0 mm 2 mps 767 mmHg 81%
    19:00 +14°C° 0 mm 2 mps 767 mmHg 88%
    20:00 +13°C° 0 mm 2 mps 767 mmHg 91%
    21:00 +12°C° 0 mm 3 mps 767 mmHg 93%
    22:00 +11°C° 0 mm 3 mps 767 mmHg 96%
    23:00 +11°C° 0 mm 3 mps 766 mmHg 96%

    29 June, Thursday

    Time Temperature Precipitation Wind Pressure Humidity
    00:00 +11°C° 0 mm 3 mps 766 mmHg 96%
    01:00 +11°C° 0 mm 3 mps 765 mmHg 97%
    02:00 +11°C° 0 mm 3 mps 765 mmHg 97%
    03:00 +10°C° 0 mm 2 mps 765 mmHg 97%
    04:00 +10°C° 0 mm 2 mps 765 mmHg 97%
    05:00 +10°C° 0.2 mm 2 mps 765 mmHg 97%
    06:00 +10°C° 0.2 mm 2 mps 765 mmHg 98%
    07:00 +10°C° 0.2 mm 2 mps 765 mmHg 98%
    08:00 +13°C° 0.8 mm 2 mps 766 mmHg 94%
    09:00 +14°C° 0.8 mm 2 mps 766 mmHg 90%
    10:00 +16°C° 0.8 mm 2 mps 766 mmHg 86%
    11:00 +16°C° 1.1 mm 2 mps 765 mmHg 88%
    12:00 +16°C° 1.1 mm 2 mps 765 mmHg 90%
    13:00 +16°C° 1.1 mm 2 mps 764 mmHg 92%
    14:00 +16°C° 1.1 mm 2 mps 764 mmHg 94%
    15:00 +16°C° 1.1 mm 2 mps 764 mmHg 96%
    16:00 +15°C° 1.1 mm 2 mps 764 mmHg 98%
    17:00 +15°C° 1.9 mm 2 mps 765 mmHg 98%
    18:00 +15°C° 1.9 mm 2 mps 765 mmHg 99%
    19:00 +15°C° 1.9 mm 2 mps 765 mmHg 99%
    20:00 +15°C° 1.1 mm 2 mps 765 mmHg 99%
    21:00 +15°C° 1.1 mm 2 mps 765 mmHg 99%
    22:00 +15°C° 1.1 mm 2 mps 765 mmHg 99%
    23:00 +15°C° 2.3 mm 2 mps 764 mmHg 99%
    Show more